Year,Month,Day,Hour,Minute,Value (Times are PST for temperature in C)
2005,07,26,00,00,15.30
2005,07,26,00,01,15.30
2005,07,26,00,02,15.30
2005,07,26,00,03,15.30
2005,07,26,00,04,15.30
2005,07,26,00,05,15.30
2005,07,26,00,06,15.30
2005,07,26,00,07,15.30
2005,07,26,00,08,15.30
2005,07,26,00,09,15.30
2005,07,26,00,10,15.30
2005,07,26,00,11,15.30
2005,07,26,00,12,15.30
2005,07,26,00,13,15.30
2005,07,26,00,14,15.30
2005,07,26,00,15,15.20
2005,07,26,00,16,15.20
2005,07,26,00,17,15.20
2005,07,26,00,18,15.20
2005,07,26,00,19,15.20
2005,07,26,00,20,15.20
2005,07,26,00,21,15.20
2005,07,26,00,22,15.20
2005,07,26,00,23,15.20
2005,07,26,00,24,15.20
2005,07,26,00,25,15.20
2005,07,26,00,26,15.20
2005,07,26,00,27,15.30
2005,07,26,00,28,15.30
2005,07,26,00,29,15.30
2005,07,26,00,30,15.30
2005,07,26,00,31,15.30
2005,07,26,00,32,15.20
2005,07,26,00,33,15.20
2005,07,26,00,34,15.10
2005,07,26,00,35,15.10
2005,07,26,00,36,15.10
2005,07,26,00,37,15.00
2005,07,26,00,38,15.00
2005,07,26,00,39,14.90
2005,07,26,00,40,14.80
2005,07,26,00,41,14.80
2005,07,26,00,42,14.80
2005,07,26,00,43,14.70
2005,07,26,00,44,14.70
2005,07,26,00,45,14.60
2005,07,26,00,46,14.60
2005,07,26,00,47,14.60
2005,07,26,00,48,14.50
2005,07,26,00,49,14.50
2005,07,26,00,50,14.40
2005,07,26,00,51,14.40
2005,07,26,00,52,14.40
2005,07,26,00,53,14.30
2005,07,26,00,54,14.30
2005,07,26,00,55,14.20
2005,07,26,00,56,14.20
2005,07,26,00,57,14.20
2005,07,26,00,58,14.20
2005,07,26,00,59,14.20
2005,07,26,01,00,14.20
2005,07,26,01,01,14.20
2005,07,26,01,02,14.20
2005,07,26,01,03,14.20
2005,07,26,01,04,14.20
2005,07,26,01,05,14.20
2005,07,26,01,06,14.20
2005,07,26,01,07,14.20
2005,07,26,01,08,14.20
2005,07,26,01,09,14.20
2005,07,26,01,10,14.20
2005,07,26,01,11,14.20
2005,07,26,01,12,14.20
2005,07,26,01,13,14.20
2005,07,26,01,14,14.20
2005,07,26,01,15,14.20
2005,07,26,01,16,14.20
2005,07,26,01,17,14.20
2005,07,26,01,18,14.20
2005,07,26,01,19,14.20
2005,07,26,01,20,14.20
2005,07,26,01,21,14.20
2005,07,26,01,22,14.20
2005,07,26,01,23,14.20
2005,07,26,01,24,14.20
2005,07,26,01,25,14.20
2005,07,26,01,26,14.20
2005,07,26,01,27,14.20
2005,07,26,01,28,14.20
2005,07,26,01,29,14.20
2005,07,26,01,30,14.20
2005,07,26,01,31,14.20
2005,07,26,01,32,14.20
2005,07,26,01,33,14.20
2005,07,26,01,34,14.10
2005,07,26,01,35,14.10
2005,07,26,01,36,14.10
2005,07,26,01,37,14.00
2005,07,26,01,38,14.00
2005,07,26,01,39,14.00
2005,07,26,01,40,13.90
2005,07,26,01,41,13.90
2005,07,26,01,42,13.90
2005,07,26,01,43,13.90
2005,07,26,01,44,13.80
2005,07,26,01,45,13.80
2005,07,26,01,46,13.80
2005,07,26,01,47,13.80
2005,07,26,01,48,13.70
2005,07,26,01,49,13.70
2005,07,26,01,50,13.70
2005,07,26,01,51,13.70
2005,07,26,01,52,13.80
2005,07,26,01,53,13.80
2005,07,26,01,54,13.80
2005,07,26,01,55,13.80
2005,07,26,01,56,13.80
2005,07,26,01,57,13.80
2005,07,26,01,58,13.80
2005,07,26,01,59,13.80
2005,07,26,02,00,13.80
2005,07,26,02,01,13.80
2005,07,26,02,02,13.80
2005,07,26,02,03,13.80
2005,07,26,02,04,13.80
2005,07,26,02,05,13.80
2005,07,26,02,06,13.80
2005,07,26,02,07,13.80
2005,07,26,02,08,13.80
2005,07,26,02,09,13.80
2005,07,26,02,10,13.80
2005,07,26,02,11,13.80
2005,07,26,02,12,13.80
2005,07,26,02,13,13.80
2005,07,26,02,14,13.80
2005,07,26,02,15,13.80
2005,07,26,02,16,13.80
2005,07,26,02,17,13.70
2005,07,26,02,18,13.70
2005,07,26,02,19,13.70
2005,07,26,02,20,13.70
2005,07,26,02,21,13.70
2005,07,26,02,22,13.70
2005,07,26,02,23,13.80
2005,07,26,02,24,13.80
2005,07,26,02,25,13.90
2005,07,26,02,26,13.90
2005,07,26,02,27,13.90
2005,07,26,02,28,13.90
2005,07,26,02,29,14.00
2005,07,26,02,30,13.90
2005,07,26,02,31,13.90
2005,07,26,02,32,13.90
2005,07,26,02,33,13.90
2005,07,26,02,34,13.80
2005,07,26,02,35,13.80
2005,07,26,02,36,13.80
2005,07,26,02,37,13.80
2005,07,26,02,38,13.70
2005,07,26,02,39,13.70
2005,07,26,02,40,13.70
2005,07,26,02,41,13.70
2005,07,26,02,42,13.70
2005,07,26,02,43,13.60
2005,07,26,02,44,13.60
2005,07,26,02,45,13.60
2005,07,26,02,46,13.60
2005,07,26,02,47,13.50
2005,07,26,02,48,13.50
2005,07,26,02,49,13.50
2005,07,26,02,50,13.50
2005,07,26,02,51,13.50
2005,07,26,02,52,13.40
2005,07,26,02,53,13.40
2005,07,26,02,54,13.40
2005,07,26,02,55,13.30
2005,07,26,02,56,13.30
2005,07,26,02,57,13.30
2005,07,26,02,58,13.30
2005,07,26,02,59,13.30
2005,07,26,03,00,13.30
2005,07,26,03,01,13.30
2005,07,26,03,02,13.30
2005,07,26,03,03,13.20
2005,07,26,03,04,13.20
2005,07,26,03,05,13.20
2005,07,26,03,06,13.20
2005,07,26,03,07,13.20
2005,07,26,03,08,13.20
2005,07,26,03,09,13.20
2005,07,26,03,10,13.20
2005,07,26,03,11,13.20
2005,07,26,03,12,13.20
2005,07,26,03,13,13.20
2005,07,26,03,14,13.20
2005,07,26,03,15,13.20
2005,07,26,03,16,13.20
2005,07,26,03,17,13.20
2005,07,26,03,18,13.20
2005,07,26,03,19,13.20
2005,07,26,03,20,13.20
2005,07,26,03,21,13.20
2005,07,26,03,22,13.20
2005,07,26,03,23,13.10
2005,07,26,03,24,13.20
2005,07,26,03,25,13.20
2005,07,26,03,26,13.20
2005,07,26,03,27,13.20
2005,07,26,03,28,13.20
2005,07,26,03,29,13.20
2005,07,26,03,30,13.10
2005,07,26,03,31,13.10
2005,07,26,03,32,13.10
2005,07,26,03,33,13.10
2005,07,26,03,34,13.10
2005,07,26,03,35,13.10
2005,07,26,03,36,13.00
2005,07,26,03,37,13.00
2005,07,26,03,38,12.90
2005,07,26,03,39,12.90
2005,07,26,03,40,12.90
2005,07,26,03,41,12.80
2005,07,26,03,42,12.80
2005,07,26,03,43,12.80
2005,07,26,03,44,12.80
2005,07,26,03,45,12.80
2005,07,26,03,46,12.70
2005,07,26,03,47,12.70
2005,07,26,03,48,12.60
2005,07,26,03,49,12.60
2005,07,26,03,50,12.60
2005,07,26,03,51,12.50
2005,07,26,03,52,12.50
2005,07,26,03,53,12.50
2005,07,26,03,54,12.40
2005,07,26,03,55,12.40
2005,07,26,03,56,12.30
2005,07,26,03,57,12.30
2005,07,26,03,58,12.30
2005,07,26,03,59,12.30
2005,07,26,04,00,12.30
2005,07,26,04,01,12.20
2005,07,26,04,02,12.20
2005,07,26,04,03,12.10
2005,07,26,04,04,12.10
2005,07,26,04,05,12.10
2005,07,26,04,06,12.10
2005,07,26,04,07,12.10
2005,07,26,04,08,12.10
2005,07,26,04,09,12.00
2005,07,26,04,10,12.00
2005,07,26,04,11,12.00
2005,07,26,04,12,12.00
2005,07,26,04,13,11.90
2005,07,26,04,14,11.90
2005,07,26,04,15,11.80
2005,07,26,04,16,11.80
2005,07,26,04,17,11.80
2005,07,26,04,18,11.80
2005,07,26,04,19,11.80
2005,07,26,04,20,11.80
2005,07,26,04,21,11.70
2005,07,26,04,22,11.70
2005,07,26,04,23,11.70
2005,07,26,04,24,11.70
2005,07,26,04,25,11.60
2005,07,26,04,26,11.60
2005,07,26,04,27,11.60
2005,07,26,04,28,11.60
2005,07,26,04,29,11.60
2005,07,26,04,30,11.60
2005,07,26,04,31,11.60
2005,07,26,04,32,11.60
2005,07,26,04,33,11.60
2005,07,26,04,34,11.60
2005,07,26,04,35,11.60
2005,07,26,04,36,11.50
2005,07,26,04,37,11.40
2005,07,26,04,38,11.40
2005,07,26,04,39,11.40
2005,07,26,04,40,11.40
2005,07,26,04,41,11.40
2005,07,26,04,42,11.40
2005,07,26,04,43,11.40
2005,07,26,04,44,11.40
2005,07,26,04,45,11.40
2005,07,26,04,46,11.30
2005,07,26,04,47,11.30
2005,07,26,04,48,11.30
2005,07,26,04,49,11.30
2005,07,26,04,50,11.20
2005,07,26,04,51,11.20
2005,07,26,04,52,11.20
2005,07,26,04,53,11.30
2005,07,26,04,54,11.30
2005,07,26,04,55,11.30
2005,07,26,04,56,11.30
2005,07,26,04,57,11.30
2005,07,26,04,58,11.30
2005,07,26,04,59,11.30
2005,07,26,05,00,11.30
2005,07,26,05,01,11.20
2005,07,26,05,02,11.20
2005,07,26,05,03,11.20
2005,07,26,05,04,11.20
2005,07,26,05,05,11.20
2005,07,26,05,06,11.20
2005,07,26,05,07,11.20
2005,07,26,05,08,11.20
2005,07,26,05,09,11.20
2005,07,26,05,10,11.20
2005,07,26,05,11,11.20
2005,07,26,05,12,11.20
2005,07,26,05,13,11.20
2005,07,26,05,14,11.20
2005,07,26,05,15,11.20
2005,07,26,05,16,11.20
2005,07,26,05,17,11.20
2005,07,26,05,18,11.20
2005,07,26,05,19,11.20
2005,07,26,05,20,11.20
2005,07,26,05,21,11.30
2005,07,26,05,22,11.30
2005,07,26,05,23,11.30
2005,07,26,05,24,11.30
2005,07,26,05,25,11.30
2005,07,26,05,26,11.30
2005,07,26,05,27,11.30
2005,07,26,05,28,11.30
2005,07,26,05,29,11.20
2005,07,26,05,30,11.20
2005,07,26,05,31,11.20
2005,07,26,05,32,11.20
2005,07,26,05,33,11.20
2005,07,26,05,34,11.20
2005,07,26,05,35,11.10
2005,07,26,05,36,11.10
2005,07,26,05,37,11.10
2005,07,26,05,38,11.10
2005,07,26,05,39,11.10
2005,07,26,05,40,11.10
2005,07,26,05,41,11.10
2005,07,26,05,42,11.10
2005,07,26,05,43,11.10
2005,07,26,05,44,11.10
2005,07,26,05,45,11.10
2005,07,26,05,46,11.10
2005,07,26,05,47,11.10
2005,07,26,05,48,11.10
2005,07,26,05,49,11.00
2005,07,26,05,50,10.90
2005,07,26,05,51,10.90
2005,07,26,05,52,11.00
2005,07,26,05,53,11.10
2005,07,26,05,54,11.10
2005,07,26,05,55,11.10
2005,07,26,05,56,11.20
2005,07,26,05,57,11.20
2005,07,26,05,58,11.20
2005,07,26,05,59,11.20
2005,07,26,06,00,11.20
2005,07,26,06,01,11.30
2005,07,26,06,02,11.30
2005,07,26,06,03,11.30
2005,07,26,06,04,11.30
2005,07,26,06,05,11.30
2005,07,26,06,06,11.30
2005,07,26,06,07,11.40
2005,07,26,06,08,11.40
2005,07,26,06,09,11.40
2005,07,26,06,10,11.40
2005,07,26,06,11,11.40
2005,07,26,06,12,11.40
2005,07,26,06,13,11.50
2005,07,26,06,14,11.60
2005,07,26,06,15,11.60
2005,07,26,06,16,11.60
2005,07,26,06,17,11.60
2005,07,26,06,18,11.60
2005,07,26,06,19,11.60
2005,07,26,06,20,11.70
2005,07,26,06,21,11.80
2005,07,26,06,22,11.80
2005,07,26,06,23,11.80
2005,07,26,06,24,11.80
2005,07,26,06,25,11.90
2005,07,26,06,26,11.90
2005,07,26,06,27,12.00
2005,07,26,06,28,12.00
2005,07,26,06,29,12.10
2005,07,26,06,30,12.20
2005,07,26,06,31,12.30
2005,07,26,06,32,12.30
2005,07,26,06,33,12.30
2005,07,26,06,34,12.40
2005,07,26,06,35,12.50
2005,07,26,06,36,12.60
2005,07,26,06,37,12.60
2005,07,26,06,38,12.70
2005,07,26,06,39,12.70
2005,07,26,06,40,12.80
2005,07,26,06,41,12.90
2005,07,26,06,42,13.00
2005,07,26,06,43,13.10
2005,07,26,06,44,13.20
2005,07,26,06,45,13.30
2005,07,26,06,46,13.30
2005,07,26,06,47,13.30
2005,07,26,06,48,13.40
2005,07,26,06,49,13.50
2005,07,26,06,50,13.50
2005,07,26,06,51,13.60
2005,07,26,06,52,13.60
2005,07,26,06,53,13.70
2005,07,26,06,54,13.70
2005,07,26,06,55,13.80
2005,07,26,06,56,13.90
2005,07,26,06,57,14.00
2005,07,26,06,58,14.10
2005,07,26,06,59,14.10
2005,07,26,07,00,14.20
2005,07,26,07,01,14.20
2005,07,26,07,02,14.30
2005,07,26,07,03,14.50
2005,07,26,07,04,14.60
2005,07,26,07,05,14.60
2005,07,26,07,06,14.70
2005,07,26,07,07,14.80
2005,07,26,07,08,14.90
2005,07,26,07,09,15.00
2005,07,26,07,10,15.00
2005,07,26,07,11,15.10
2005,07,26,07,12,15.10
2005,07,26,07,13,15.20
2005,07,26,07,14,15.20
2005,07,26,07,15,15.20
2005,07,26,07,16,15.30
2005,07,26,07,17,15.30
2005,07,26,07,18,15.30
2005,07,26,07,19,15.30
2005,07,26,07,20,15.30
2005,07,26,07,21,15.30
2005,07,26,07,22,15.40
2005,07,26,07,23,15.40
2005,07,26,07,24,15.50
2005,07,26,07,25,15.50
2005,07,26,07,26,15.60
2005,07,26,07,27,15.60
2005,07,26,07,28,15.70
2005,07,26,07,29,15.70
2005,07,26,07,30,15.80
2005,07,26,07,31,15.80
2005,07,26,07,32,15.90
2005,07,26,07,33,16.10
2005,07,26,07,34,16.10
2005,07,26,07,35,16.10
2005,07,26,07,36,16.10
2005,07,26,07,37,16.20
2005,07,26,07,38,16.30
2005,07,26,07,39,16.30
2005,07,26,07,40,16.40
2005,07,26,07,41,16.40
2005,07,26,07,42,16.60
2005,07,26,07,43,16.70
2005,07,26,07,44,16.70
2005,07,26,07,45,16.80
2005,07,26,07,46,16.90
2005,07,26,07,47,17.00
2005,07,26,07,48,17.10
2005,07,26,07,49,17.20
2005,07,26,07,50,17.30
2005,07,26,07,51,17.30
2005,07,26,07,52,17.40
2005,07,26,07,53,17.40
2005,07,26,07,54,17.40
2005,07,26,07,55,17.50
2005,07,26,07,56,17.50
2005,07,26,07,57,17.60
2005,07,26,07,58,17.60
2005,07,26,07,59,17.60
2005,07,26,08,00,17.70
2005,07,26,08,01,17.80
2005,07,26,08,02,17.90
2005,07,26,08,03,17.90
2005,07,26,08,04,18.00
2005,07,26,08,05,18.10
2005,07,26,08,06,18.20
2005,07,26,08,07,18.20
2005,07,26,08,08,18.30
2005,07,26,08,09,18.30
2005,07,26,08,10,18.40
2005,07,26,08,11,18.50
2005,07,26,08,12,18.60
2005,07,26,08,13,18.60
2005,07,26,08,14,18.70
2005,07,26,08,15,18.80
2005,07,26,08,16,18.90
2005,07,26,08,17,18.90
2005,07,26,08,18,19.00
2005,07,26,08,19,19.10
2005,07,26,08,20,19.10
2005,07,26,08,21,19.10
2005,07,26,08,22,19.10
2005,07,26,08,23,19.10
2005,07,26,08,24,19.20
2005,07,26,08,25,19.30
2005,07,26,08,26,19.30
2005,07,26,08,27,19.40
2005,07,26,08,28,19.50
2005,07,26,08,29,19.60
2005,07,26,08,30,19.60
2005,07,26,08,31,19.70
2005,07,26,08,32,19.70
2005,07,26,08,33,19.70
2005,07,26,08,34,19.80
2005,07,26,08,35,19.80
2005,07,26,08,36,19.80
2005,07,26,08,37,19.90
2005,07,26,08,38,19.90
2005,07,26,08,39,19.90
2005,07,26,08,40,19.90
2005,07,26,08,41,20.00
2005,07,26,08,42,20.10
2005,07,26,08,43,20.20
2005,07,26,08,44,20.20
2005,07,26,08,45,20.20
2005,07,26,08,46,20.30
2005,07,26,08,47,20.40
2005,07,26,08,48,20.40
2005,07,26,08,49,20.50
2005,07,26,08,50,20.50
2005,07,26,08,51,20.50
2005,07,26,08,52,20.50
2005,07,26,08,53,20.50
2005,07,26,08,54,20.60
2005,07,26,08,55,20.60
2005,07,26,08,56,20.60
2005,07,26,08,57,20.60
2005,07,26,08,58,20.70
2005,07,26,08,59,20.80
2005,07,26,09,00,20.90
2005,07,26,09,01,21.00
2005,07,26,09,02,21.20
2005,07,26,09,03,21.30
2005,07,26,09,04,21.40
2005,07,26,09,05,21.40
2005,07,26,09,06,21.40
2005,07,26,09,07,21.30
2005,07,26,09,08,21.20
2005,07,26,09,09,21.20
2005,07,26,09,10,21.20
2005,07,26,09,11,21.30
2005,07,26,09,12,21.30
2005,07,26,09,13,21.40
2005,07,26,09,14,21.50
2005,07,26,09,15,21.60
2005,07,26,09,16,21.60
2005,07,26,09,17,21.60
2005,07,26,09,18,21.60
2005,07,26,09,19,21.60
2005,07,26,09,20,21.60
2005,07,26,09,21,21.70
2005,07,26,09,22,21.80
2005,07,26,09,23,21.90
2005,07,26,09,24,21.90
2005,07,26,09,25,22.00
2005,07,26,09,26,22.10
2005,07,26,09,27,22.10
2005,07,26,09,28,22.00
2005,07,26,09,29,22.00
2005,07,26,09,30,22.10
2005,07,26,09,31,22.20
2005,07,26,09,36,22.40
2005,07,26,09,37,22.40
2005,07,26,09,38,22.30
2005,07,26,09,39,22.30
2005,07,26,09,40,22.20
2005,07,26,09,41,22.20
2005,07,26,09,42,22.10
2005,07,26,09,43,22.10
2005,07,26,09,44,22.20
2005,07,26,09,45,22.30
2005,07,26,09,46,22.40
2005,07,26,09,47,22.50
2005,07,26,09,48,22.60
2005,07,26,09,49,22.70
2005,07,26,09,50,22.80
2005,07,26,09,51,22.90
2005,07,26,09,52,22.90
2005,07,26,09,53,22.90
2005,07,26,09,54,22.90
2005,07,26,09,55,22.90
2005,07,26,09,56,22.90
2005,07,26,09,57,22.70
2005,07,26,09,58,22.50
2005,07,26,09,59,22.40
2005,07,26,10,00,22.40
2005,07,26,10,01,22.50
2005,07,26,10,02,22.60
2005,07,26,10,03,22.60
2005,07,26,10,04,22.60
2005,07,26,10,05,22.80
2005,07,26,10,06,22.90
2005,07,26,10,07,22.90
2005,07,26,10,08,22.90
2005,07,26,10,09,22.90
2005,07,26,10,10,22.90
2005,07,26,10,11,22.90
2005,07,26,10,12,22.90
2005,07,26,10,13,22.80
2005,07,26,10,14,22.80
2005,07,26,10,15,22.80
2005,07,26,10,16,22.80
2005,07,26,10,17,22.60
2005,07,26,10,18,22.60
2005,07,26,10,19,22.70
2005,07,26,10,20,22.70
2005,07,26,10,21,22.90
2005,07,26,10,22,22.90
2005,07,26,10,23,23.10
2005,07,26,10,24,23.10
2005,07,26,10,25,23.10
2005,07,26,10,26,22.90
2005,07,26,10,27,22.90
2005,07,26,10,28,22.80
2005,07,26,10,29,22.80
2005,07,26,10,30,22.90
2005,07,26,10,31,23.10
2005,07,26,10,32,23.30
2005,07,26,10,33,23.40
2005,07,26,10,34,23.50
2005,07,26,10,35,23.60
2005,07,26,10,36,23.60
2005,07,26,10,37,23.70
2005,07,26,10,38,23.70
2005,07,26,10,39,23.70
2005,07,26,10,40,23.70
2005,07,26,10,41,23.70
2005,07,26,10,42,23.60
2005,07,26,10,43,23.60
2005,07,26,10,44,23.60
2005,07,26,10,45,23.70
2005,07,26,10,46,23.70
2005,07,26,10,47,23.70
2005,07,26,10,48,23.80
2005,07,26,10,49,23.80
2005,07,26,10,50,23.70
2005,07,26,10,51,23.70
2005,07,26,10,52,23.50
2005,07,26,10,53,23.30
2005,07,26,10,54,23.10
2005,07,26,10,55,22.90
2005,07,26,10,56,22.90
2005,07,26,10,57,22.90
2005,07,26,10,58,22.90
2005,07,26,10,59,22.90
2005,07,26,11,00,22.90
2005,07,26,11,01,22.70
2005,07,26,11,02,22.60
2005,07,26,11,03,22.60
2005,07,26,11,04,22.60
2005,07,26,11,05,22.80
2005,07,26,11,06,22.90
2005,07,26,11,07,22.90
2005,07,26,11,08,22.90
2005,07,26,11,09,23.00
2005,07,26,11,10,23.20
2005,07,26,11,11,23.30
2005,07,26,11,12,23.50
2005,07,26,11,13,23.60
2005,07,26,11,14,23.70
2005,07,26,11,15,23.60
2005,07,26,11,16,23.60
2005,07,26,11,17,23.70
2005,07,26,11,18,23.70
2005,07,26,11,19,23.70
2005,07,26,11,20,23.60
2005,07,26,11,21,23.50
2005,07,26,11,22,23.30
2005,07,26,11,23,23.30
2005,07,26,11,24,23.30
2005,07,26,11,25,23.30
2005,07,26,11,26,23.40
2005,07,26,11,27,23.60
2005,07,26,11,28,23.70
2005,07,26,11,29,23.90
2005,07,26,11,30,24.00
2005,07,26,11,31,24.10
2005,07,26,11,32,24.10
2005,07,26,11,33,24.20
2005,07,26,11,34,24.30
2005,07,26,11,35,24.20
2005,07,26,11,36,24.10
2005,07,26,11,37,23.90
2005,07,26,11,38,23.80
2005,07,26,11,39,23.70
2005,07,26,11,40,23.70
2005,07,26,11,41,23.70
2005,07,26,11,42,23.70
2005,07,26,11,43,23.70
2005,07,26,11,44,23.70
2005,07,26,11,45,23.80
2005,07,26,11,46,24.00
2005,07,26,11,47,24.10
2005,07,26,11,48,24.00
2005,07,26,11,49,23.90
2005,07,26,11,50,23.70
2005,07,26,11,51,23.70
2005,07,26,11,52,23.70
2005,07,26,11,53,23.70
2005,07,26,11,54,23.80
2005,07,26,11,55,23.80
2005,07,26,11,56,23.80
2005,07,26,11,57,23.80
2005,07,26,11,58,23.80
2005,07,26,11,59,23.90
2005,07,26,12,00,24.00
2005,07,26,12,01,24.10
2005,07,26,12,02,24.00
2005,07,26,12,03,23.90
2005,07,26,12,04,23.80
2005,07,26,12,05,23.80
2005,07,26,12,06,23.70
2005,07,26,12,07,23.70
2005,07,26,12,08,23.80
2005,07,26,12,09,23.90
2005,07,26,12,10,23.90
2005,07,26,12,11,23.90
2005,07,26,12,12,23.90
2005,07,26,12,13,23.80
2005,07,26,12,14,23.80
2005,07,26,12,15,23.80
2005,07,26,12,16,23.80
2005,07,26,12,17,24.00
2005,07,26,12,18,24.10
2005,07,26,12,19,24.30
2005,07,26,12,20,24.40
2005,07,26,12,21,24.50
2005,07,26,12,22,24.60
2005,07,26,12,23,24.70
2005,07,26,12,24,24.60
2005,07,26,12,25,24.50
2005,07,26,12,26,24.40
2005,07,26,12,27,24.50
2005,07,26,12,28,24.60
2005,07,26,12,29,24.70
2005,07,26,12,30,24.70
2005,07,26,12,31,24.70
2005,07,26,12,32,24.60
2005,07,26,12,33,24.50
2005,07,26,12,34,24.50
2005,07,26,12,35,24.60
2005,07,26,12,36,24.70
2005,07,26,12,37,24.80
2005,07,26,12,38,24.90
2005,07,26,12,39,24.90
2005,07,26,12,40,25.00
2005,07,26,12,41,25.10
2005,07,26,12,42,25.20
2005,07,26,12,43,25.10
2005,07,26,12,44,25.00
2005,07,26,12,45,24.80
2005,07,26,12,46,24.70
2005,07,26,12,47,24.70
2005,07,26,12,48,24.70
2005,07,26,12,49,24.80
2005,07,26,12,50,24.90
2005,07,26,12,51,24.90
2005,07,26,12,52,24.90
2005,07,26,12,53,24.80
2005,07,26,12,54,24.80
2005,07,26,12,55,24.70
2005,07,26,12,56,24.60
2005,07,26,12,57,24.60
2005,07,26,12,58,24.60
2005,07,26,12,59,24.60
2005,07,26,13,00,24.80
2005,07,26,13,01,24.90
2005,07,26,13,02,24.90
2005,07,26,13,03,24.90
2005,07,26,13,04,24.80
2005,07,26,13,05,24.60
2005,07,26,13,06,24.60
2005,07,26,13,07,24.50
2005,07,26,13,08,24.50
2005,07,26,13,09,24.60
2005,07,26,13,10,24.60
2005,07,26,13,11,24.70
2005,07,26,13,12,24.70
2005,07,26,13,13,24.80
2005,07,26,13,14,24.90
2005,07,26,13,15,24.90
2005,07,26,13,16,24.90
2005,07,26,13,17,24.90
2005,07,26,13,18,25.00
2005,07,26,13,19,25.00
2005,07,26,13,20,25.00
2005,07,26,13,21,25.00
2005,07,26,13,22,25.00
2005,07,26,13,23,25.00
2005,07,26,13,24,25.00
2005,07,26,13,25,25.00
2005,07,26,13,26,25.20
2005,07,26,13,27,25.30
2005,07,26,13,28,25.40
2005,07,26,13,29,25.50
2005,07,26,13,30,25.60
2005,07,26,13,31,25.80
2005,07,26,13,32,25.80
2005,07,26,13,33,25.90
2005,07,26,13,34,26.20
2005,07,26,13,35,26.20
2005,07,26,13,36,26.10
2005,07,26,13,37,25.80
2005,07,26,13,38,25.80
2005,07,26,13,39,25.70
2005,07,26,13,40,25.50
2005,07,26,13,42,25.70
2005,07,26,13,43,25.80
2005,07,26,13,44,25.80
2005,07,26,13,45,25.80
2005,07,26,13,46,25.70
2005,07,26,13,47,25.70
2005,07,26,13,48,25.90
2005,07,26,13,49,25.90
2005,07,26,13,50,25.90
2005,07,26,13,51,26.00
2005,07,26,13,52,26.10
2005,07,26,13,53,26.30
2005,07,26,13,54,26.30
2005,07,26,13,55,26.20
2005,07,26,13,56,26.10
2005,07,26,13,57,25.90
2005,07,26,13,58,25.90
2005,07,26,13,59,25.90
2005,07,26,14,00,25.70
2005,07,26,14,01,25.80
2005,07,26,14,02,25.90
2005,07,26,14,03,26.00
2005,07,26,14,04,26.10
2005,07,26,14,05,26.20
2005,07,26,14,06,26.20
2005,07,26,14,07,26.10
2005,07,26,14,08,26.00
2005,07,26,14,09,25.90
2005,07,26,14,10,25.90
2005,07,26,14,11,25.90
2005,07,26,14,12,25.80
2005,07,26,14,13,25.80
2005,07,26,14,14,25.90
2005,07,26,14,15,25.90
2005,07,26,14,16,26.00
2005,07,26,14,17,26.10
2005,07,26,14,18,26.10
2005,07,26,14,19,26.30
2005,07,26,14,20,26.30
2005,07,26,14,21,26.30
2005,07,26,14,22,26.30
2005,07,26,14,23,26.30
2005,07,26,14,24,26.30
2005,07,26,14,25,26.30
2005,07,26,14,26,26.40
2005,07,26,14,27,26.50
2005,07,26,14,28,26.60
2005,07,26,14,29,26.70
2005,07,26,14,30,26.80
2005,07,26,14,31,26.90
2005,07,26,14,32,26.90
2005,07,26,14,33,26.80
2005,07,26,14,34,26.70
2005,07,26,14,35,26.70
2005,07,26,14,36,26.50
2005,07,26,14,37,26.40
2005,07,26,14,38,26.30
2005,07,26,14,39,26.40
2005,07,26,14,40,26.40
2005,07,26,14,41,26.60
2005,07,26,14,42,26.60
2005,07,26,14,43,26.70
2005,07,26,14,44,26.70
2005,07,26,14,45,26.70
2005,07,26,14,46,26.60
2005,07,26,14,47,26.60
2005,07,26,14,48,26.60
2005,07,26,14,49,26.60
2005,07,26,14,50,26.70
2005,07,26,14,51,26.70
2005,07,26,14,52,26.70
2005,07,26,14,53,26.60
2005,07,26,14,54,26.40
2005,07,26,14,55,26.30
2005,07,26,14,56,26.10
2005,07,26,14,57,26.00
2005,07,26,14,58,25.90
2005,07,26,14,59,25.90
2005,07,26,15,00,26.00
2005,07,26,15,01,26.20
2005,07,26,15,02,26.30
2005,07,26,15,03,26.40
2005,07,26,15,04,26.40
2005,07,26,15,05,26.40
2005,07,26,15,06,26.30
2005,07,26,15,07,26.30
2005,07,26,15,08,26.40
2005,07,26,15,09,26.30
2005,07,26,15,10,26.40
2005,07,26,15,11,26.50
2005,07,26,15,12,26.60
2005,07,26,15,13,26.60
2005,07,26,15,14,26.60
2005,07,26,15,15,26.40
2005,07,26,15,16,26.20
2005,07,26,15,17,26.30
2005,07,26,15,18,26.30
2005,07,26,15,19,26.20
2005,07,26,15,20,26.10
2005,07,26,15,21,26.10
2005,07,26,15,22,26.20
2005,07,26,15,23,26.40
2005,07,26,15,24,26.60
2005,07,26,15,25,26.70
2005,07,26,15,26,26.80
2005,07,26,15,27,26.90
2005,07,26,15,28,26.90
2005,07,26,15,29,27.00
2005,07,26,15,30,27.20
2005,07,26,15,31,27.30
2005,07,26,15,32,27.30
2005,07,26,15,33,27.30
2005,07,26,15,34,27.30
2005,07,26,15,35,27.20
2005,07,26,15,36,27.00
2005,07,26,15,37,26.90
2005,07,26,15,38,26.80
2005,07,26,15,39,26.70
2005,07,26,15,40,26.60
2005,07,26,15,41,26.50
2005,07,26,15,42,26.30
2005,07,26,15,43,26.20
2005,07,26,15,44,26.20
2005,07,26,15,45,26.20
2005,07,26,15,46,26.20
2005,07,26,15,47,26.10
2005,07,26,15,48,25.90
2005,07,26,15,49,25.80
2005,07,26,15,50,25.80
2005,07,26,15,51,25.90
2005,07,26,15,52,26.00
2005,07,26,15,53,26.10
2005,07,26,15,54,26.30
2005,07,26,15,55,26.40
2005,07,26,15,56,26.60
2005,07,26,15,57,26.60
2005,07,26,15,58,26.60
2005,07,26,15,59,26.60
2005,07,26,16,00,26.60
2005,07,26,16,01,26.60
2005,07,26,16,02,26.60
2005,07,26,16,03,26.60
2005,07,26,16,04,26.60
2005,07,26,16,05,26.60
2005,07,26,16,06,26.80
2005,07,26,16,07,26.80
2005,07,26,16,08,26.70
2005,07,26,16,09,26.70
2005,07,26,16,10,26.60
2005,07,26,16,11,26.50
2005,07,26,16,12,26.30
2005,07,26,16,13,25.90
2005,07,26,16,14,25.80
2005,07,26,16,15,25.60
2005,07,26,16,16,25.50
2005,07,26,16,17,25.50
2005,07,26,16,18,25.60
2005,07,26,16,19,25.60
2005,07,26,16,20,25.60
2005,07,26,16,21,25.60
2005,07,26,16,22,25.70
2005,07,26,16,23,25.80
2005,07,26,16,24,25.60
2005,07,26,16,25,25.70
2005,07,26,16,26,25.80
2005,07,26,16,27,25.80
2005,07,26,16,28,25.70
2005,07,26,16,29,25.70
2005,07,26,16,30,25.80
2005,07,26,16,31,25.80
2005,07,26,16,32,25.90
2005,07,26,16,33,26.00
2005,07,26,16,34,26.00
2005,07,26,16,35,26.00
2005,07,26,16,36,25.90
2005,07,26,16,37,25.90
2005,07,26,16,38,25.90
2005,07,26,16,39,26.00
2005,07,26,16,40,26.00
2005,07,26,16,41,25.90
2005,07,26,16,42,25.80
2005,07,26,16,43,25.60
2005,07,26,16,44,25.40
2005,07,26,16,45,25.30
2005,07,26,16,46,25.30
2005,07,26,16,47,25.20
2005,07,26,16,48,25.20
2005,07,26,16,49,25.20
2005,07,26,16,50,25.10
2005,07,26,16,51,25.10
2005,07,26,16,52,25.10
2005,07,26,16,53,25.10
2005,07,26,16,54,25.10
2005,07,26,16,55,25.10
2005,07,26,16,56,25.10
2005,07,26,16,57,25.10
2005,07,26,16,58,25.10
2005,07,26,16,59,25.00
2005,07,26,17,00,25.00
2005,07,26,17,01,25.00
2005,07,26,17,02,25.00
2005,07,26,17,03,25.00
2005,07,26,17,04,25.00
2005,07,26,17,05,25.00
2005,07,26,17,06,25.00
2005,07,26,17,07,25.00
2005,07,26,17,08,25.00
2005,07,26,17,09,25.00
2005,07,26,17,10,25.10
2005,07,26,17,11,25.20
2005,07,26,17,12,25.40
2005,07,26,17,13,25.50
2005,07,26,17,14,25.60
2005,07,26,17,15,25.60
2005,07,26,17,16,25.70
2005,07,26,17,17,25.80
2005,07,26,17,18,25.90
2005,07,26,17,19,26.00
2005,07,26,17,20,26.00
2005,07,26,17,21,26.20
2005,07,26,17,22,26.20
2005,07,26,17,23,26.20
2005,07,26,17,24,26.10